Location: Austin
(30.3000°N, 97.7500°W)
Time: 05:04:30
(UTC-06:00)

SL-19 R/B - Pass Details

Date: 03 March 2026
Orbit: 795 x 1008 km, 99.6° (Epoch: 5 March)

Event Time Altitude Azimuth Distance (km) Brightness Sun altitude
Rises 19:15:00 0° 154° (SSE) 3,603 7.2 -10.2°
Reaches altitude 10° 19:17:32 10° 150° (SSE) 2,632 6.5 -10.8°
Maximum altitude 19:23:15 57° 73° (ENE) 1,051 4.4 -12.0°
Drops below altitude 10° 19:28:41 10° 356° (N) 2,504 6.7 -13.2°
Sets 19:31:02 0° 353° (N) 3,414 7.5 -13.7°
